Voltar ao catálogo

COSMOS 2063

AtivoMilitarHEO
NORAD 20536·PAYLOAD·🇷🇺 Russia

Lançado Mar 27, 1990 de Plesetsk Cosmodrome

Loading…

Próximas Passagens (próximas 24 horas)

TLE

AtualizadoSource: Space-Track

Época: Sep 7, 2026, 20:18 UTC

1 20536U 90026A   26250.84625990  .00000580  00000-0  00000-0 0  9994
2 20536  66.6498 166.0945 5386338 129.6603 291.8351  1.99607013265706

Acompanhe COSMOS 2063 em tempo real com AllMySat

Download on the App Store